TimeCST,TemperatureF,Dew PointF,Humidity,Sea Level PressureIn,VisibilityMPH,Wind Direction,Wind SpeedMPH,Gust SpeedMPH,PrecipitationIn,Events,Conditions,WindDirDegrees,DateUTC
12:53 AM,46.9,43.0,86,29.92,4.0,WSW,3.5,-,N/A,,Overcast,240,2012-11-07 06:53:00
1:38 AM,46.4,42.8,87,29.91,5.0,SW,3.5,-,N/A,,Haze,230,2012-11-07 07:38:00
1:53 AM,46.9,43.0,86,29.91,3.0,Calm,Calm,-,N/A,,Overcast,0,2012-11-07 07:53:00
2:02 AM,46.4,42.8,87,29.91,2.5,Calm,Calm,-,N/A,,Overcast,0,2012-11-07 08:02:00
2:30 AM,46.4,42.8,87,29.91,1.8,Calm,Calm,-,0.01,Rain,Light Rain,0,2012-11-07 08:30:00
2:53 AM,46.9,43.0,86,29.91,1.5,Calm,Calm,-,0.02,Rain,Light Rain,0,2012-11-07 08:53:00
3:02 AM,46.4,42.8,87,29.91,1.8,Calm,Calm,-,0.01,Rain,Light Rain,0,2012-11-07 09:02:00
3:05 AM,46.4,42.8,87,29.91,2.0,Calm,Calm,-,0.01,Rain,Light Rain,0,2012-11-07 09:05:00
3:29 AM,46.4,42.8,87,29.91,1.8,Calm,Calm,-,0.01,Rain,Light Rain,0,2012-11-07 09:29:00
3:39 AM,46.4,42.8,87,29.91,2.0,Calm,Calm,-,0.02,Rain,Light Rain,0,2012-11-07 09:39:00
3:53 AM,46.9,43.0,86,29.91,1.8,Calm,Calm,-,0.02,,Overcast,0,2012-11-07 09:53:00
4:20 AM,46.4,42.8,87,29.91,2.5,WNW,4.6,-,0.01,Rain,Light Rain,300,2012-11-07 10:20:00
4:31 AM,46.4,42.8,87,29.91,3.0,WNW,3.5,-,0.01,Rain,Light Rain,300,2012-11-07 10:31:00
4:53 AM,46.9,43.0,86,29.91,3.0,WNW,3.5,-,0.01,,Overcast,290,2012-11-07 10:53:00
5:15 AM,46.4,42.8,87,29.91,3.0,West,3.5,-,N/A,,Overcast,280,2012-11-07 11:15:00
5:49 AM,46.4,42.8,87,29.91,2.5,WNW,3.5,-,N/A,,Overcast,290,2012-11-07 11:49:00
5:53 AM,46.9,43.0,86,29.92,2.5,WNW,4.6,-,N/A,,Overcast,290,2012-11-07 11:53:00
6:02 AM,46.4,42.8,87,29.92,4.0,WNW,4.6,-,N/A,,Overcast,290,2012-11-07 12:02:00
6:29 AM,46.4,42.8,87,29.92,4.0,Calm,Calm,-,N/A,,Overcast,0,2012-11-07 12:29:00
6:36 AM,46.4,42.8,87,29.92,3.0,Calm,Calm,-,N/A,,Overcast,0,2012-11-07 12:36:00
6:45 AM,46.4,42.8,87,29.93,3.0,WNW,3.5,-,N/A,,Overcast,290,2012-11-07 12:45:00
6:53 AM,46.9,43.0,86,29.93,3.0,WNW,4.6,-,N/A,,Overcast,290,2012-11-07 12:53:00
7:19 AM,48.2,42.8,82,29.94,2.5,West,5.8,-,N/A,,Haze,280,2012-11-07 13:19:00
7:31 AM,46.4,42.8,87,29.95,1.8,WNW,4.6,-,N/A,,Overcast,300,2012-11-07 13:31:00
7:49 AM,46.4,42.8,87,29.95,3.0,NW,3.5,-,0.01,Rain,Light Rain,310,2012-11-07 13:49:00
7:53 AM,46.9,43.0,86,29.95,4.0,NW,6.9,-,0.01,,Overcast,320,2012-11-07 13:53:00
8:01 AM,46.4,42.8,87,29.95,4.0,NW,5.8,-,N/A,,Overcast,310,2012-11-07 14:01:00
8:53 AM,48.0,42.1,80,29.97,5.0,NW,5.8,-,N/A,,Haze,310,2012-11-07 14:53:00
9:04 AM,48.2,42.8,82,29.97,5.0,NW,8.1,-,N/A,,Haze,310,2012-11-07 15:04:00
9:19 AM,48.2,42.8,82,29.97,6.0,NW,6.9,-,N/A,,Haze,320,2012-11-07 15:19:00
9:28 AM,48.2,42.8,82,29.97,6.0,WNW,6.9,-,N/A,,Haze,300,2012-11-07 15:28:00
9:35 AM,48.2,42.8,82,29.97,6.0,NW,5.8,-,N/A,,Haze,320,2012-11-07 15:35:00
9:53 AM,48.9,43.0,80,29.98,5.0,WNW,4.6,-,N/A,,Haze,300,2012-11-07 15:53:00
10:29 AM,48.2,42.8,82,29.98,6.0,WNW,5.8,-,N/A,,Haze,300,2012-11-07 16:29:00
10:53 AM,48.9,41.0,74,29.99,6.0,NNW,5.8,-,N/A,,Haze,330,2012-11-07 16:53:00
11:02 AM,50.0,42.8,76,29.99,6.0,NW,5.8,-,N/A,,Haze,320,2012-11-07 17:02:00
11:27 AM,50.0,42.8,76,29.98,4.0,NNW,4.6,-,0.00,Rain,Light Rain,330,2012-11-07 17:27:00
11:35 AM,50.0,42.8,76,29.98,7.0,Calm,Calm,-,0.00,,Overcast,0,2012-11-07 17:35:00
11:51 AM,50.0,42.8,76,29.98,6.0,North,4.6,-,0.00,,Haze,10,2012-11-07 17:51:00
11:53 AM,50.0,42.1,74,29.99,6.0,North,5.8,-,0.00,,Haze,350,2012-11-07 17:53:00
12:48 PM,50.0,41.0,71,29.98,10.0,NNW,4.6,-,N/A,,Overcast,340,2012-11-07 18:48:00
12:53 PM,50.0,41.0,71,29.99,10.0,North,5.8,-,N/A,,Overcast,10,2012-11-07 18:53:00
1:31 PM,50.0,42.8,76,29.99,10.0,NNE,3.5,-,N/A,,Overcast,20,2012-11-07 19:31:00
1:53 PM,50.0,42.1,74,29.99,10.0,North,4.6,-,N/A,,Overcast,360,2012-11-07 19:53:00
2:06 PM,50.0,42.8,76,29.99,10.0,Calm,Calm,-,N/A,,Overcast,0,2012-11-07 20:06:00
2:35 PM,51.8,41.0,67,30.00,10.0,NNW,3.5,-,N/A,,Mostly Cloudy,330,2012-11-07 20:35:00
2:53 PM,51.1,41.0,68,30.02,10.0,Variable,3.5,-,N/A,,Mostly Cloudy,0,2012-11-07 20:53:00
3:09 PM,51.8,39.2,62,30.02,10.0,NNW,5.8,-,N/A,,Overcast,340,2012-11-07 21:09:00
3:36 PM,50.0,41.0,71,30.03,10.0,Variable,3.5,-,N/A,,Overcast,0,2012-11-07 21:36:00
3:53 PM,50.0,41.0,71,30.04,10.0,NNW,4.6,-,N/A,,Overcast,340,2012-11-07 21:53:00
4:53 PM,50.0,39.9,68,30.06,10.0,North,4.6,-,N/A,,Overcast,350,2012-11-07 22:53:00
5:53 PM,50.0,41.0,71,30.10,10.0,Calm,Calm,-,N/A,,Overcast,0,2012-11-07 23:53:00
6:53 PM,48.0,39.0,71,30.12,10.0,Calm,Calm,-,N/A,,Overcast,0,2012-11-08 00:53:00
7:53 PM,48.9,39.0,69,30.13,10.0,NNW,5.8,-,N/A,,Overcast,330,2012-11-08 01:53:00
8:53 PM,48.0,39.9,74,30.14,7.0,NW,4.6,-,N/A,,Overcast,320,2012-11-08 02:53:00
9:53 PM,48.0,39.9,74,30.15,7.0,WNW,3.5,-,N/A,,Overcast,300,2012-11-08 03:53:00
10:53 PM,45.0,37.9,76,30.15,6.0,Calm,Calm,-,N/A,,Haze,0,2012-11-08 04:53:00
11:53 PM,46.0,39.0,76,30.16,6.0,Calm,Calm,-,N/A,,Haze,0,2012-11-08 05:53:00